| time (UTC) | temp C | wind direction | speed KPH | gust KPH | rain 1hr cm | rain 24hr cm | rain mn cm | humidity % | barometer mb |
| 20260504235743 | 17 | 217 | 0.0 | 1.6 | 0.00 | 0.00 | 0.00 | 44 | 1005.2 |
| 20260504235239 | 17 | 211 | 0.0 | 0.0 | 0.00 | 0.00 | 0.00 | 43 | 1005.3 |
| 20260504234736 | 18 | 220 | 0.0 | 0.0 | 0.00 | 0.00 | 0.00 | 43 | 1005.1 |
| 20260504234234 | 18 | 206 | 0.0 | 0.0 | 0.00 | 0.00 | 0.00 | 41 | 1004.8 |
| 20260504233730 | 18 | 219 | 0.0 | 0.0 | 0.00 | 0.00 | 0.00 | 41 | 1004.8 |
| 20260504233226 | 18 | 171 | 3.2 | 8.0 | 0.00 | 0.00 | 0.00 | 40 | 1004.8 |
| 20260504232723 | 18 | 191 | 1.6 | 8.0 | 0.00 | 0.00 | 0.00 | 40 | 1004.8 |
| 20260504232220 | 18 | 239 | 1.6 | 9.7 | 0.00 | 0.00 | 0.00 | 41 | 1004.5 |
| 20260504231716 | 19 | 238 | 3.2 | 9.7 | 0.00 | 0.00 | 0.00 | 40 | 1004.6 |
| 20260504231213 | 19 | 186 | 1.6 | 9.7 | 0.00 | 0.00 | 0.00 | 40 | 1004.4 |
| 20260504230709 | 19 | 133 | 3.2 | 8.0 | 0.00 | 0.00 | 0.00 | 39 | 1004.6 |
| 20260504230208 | 20 | 258 | 1.6 | 3.2 | 0.00 | 0.00 | 0.00 | 40 | 1004.4 |
| 20260504225706 | 19 | 256 | 3.2 | 16.1 | 0.00 | 0.00 | 0.00 | 40 | 1004.2 |
| 20260504225202 | 19 | 183 | 8.0 | 9.7 | 0.00 | 0.00 | 0.00 | 40 | 1004.1 |
| 20260504224700 | 20 | 221 | 6.4 | 11.3 | 0.00 | 0.00 | 0.00 | 39 | 1004.2 |
| 20260504224156 | 20 | 242 | 3.2 | 12.9 | 0.00 | 0.00 | 0.00 | 38 | 1004.2 |
| 20260504223653 | 20 | 245 | 4.8 | 4.8 | 0.00 | 0.00 | 0.00 | 38 | 1004.0 |
| 20260504223148 | 20 | 257 | 8.0 | 11.3 | 0.00 | 0.00 | 0.00 | 39 | 1003.9 |
| 20260504222646 | 20 | 247 | 3.2 | 4.8 | 0.00 | 0.00 | 0.00 | 39 | 1004.2 |
| 20260504222142 | 20 | 251 | 0.0 | 9.7 | 0.00 | 0.00 | 0.00 | 39 | 1004.0 |
| 20260504221640 | 20 | 259 | 3.2 | 8.0 | 0.00 | 0.00 | 0.00 | 38 | 1004.2 |
| 20260504221137 | 20 | 227 | 1.6 | 9.7 | 0.00 | 0.00 | 0.00 | 38 | 1004.1 |
| 20260504220633 | 21 | 261 | 4.8 | 4.8 | 0.00 | 0.00 | 0.00 | 38 | 1004.1 |
| 20260504220131 | 21 | 257 | 9.7 | 16.1 | 0.00 | 0.00 | 0.00 | 37 | 1004.2 |
| 20260504215627 | 20 | 248 | 3.2 | 12.9 | 0.00 | 0.00 | 0.00 | 37 | 1004.0 |
| 20260504215125 | 20 | 163 | 4.8 | 16.1 | 0.00 | 0.00 | 0.00 | 37 | 1004.2 |
| 20260504214620 | 20 | 239 | 3.2 | 22.5 | 0.00 | 0.00 | 0.00 | 38 | 1004.2 |
| 20260504214117 | 20 | 267 | 9.7 | 16.1 | 0.00 | 0.00 | 0.00 | 37 | 1004.3 |
| 20260504213613 | 20 | 233 | 4.8 | 11.3 | 0.00 | 0.00 | 0.00 | 38 | 1004.1 |
| 20260504213110 | 20 | 216 | 9.7 | 12.9 | 0.00 | 0.00 | 0.00 | 38 | 1004.1 |
| 20260504212606 | 20 | 251 | 3.2 | 9.7 | 0.00 | 0.00 | 0.00 | 39 | 1004.0 |
| 20260504212104 | 20 | 267 | 6.4 | 9.7 | 0.00 | 0.00 | 0.00 | 39 | 1004.0 |
| 20260504211601 | 20 | 125 | 4.8 | 16.1 | 0.00 | 0.00 | 0.00 | 39 | 1004.2 |
| 20260504211057 | 20 | 285 | 9.7 | 11.3 | 0.00 | 0.00 | 0.00 | 39 | 1004.0 |
| 20260504210555 | 20 | 228 | 3.2 | 12.9 | 0.00 | 0.00 | 0.00 | 41 | 1003.9 |
| 20260504210051 | 21 | 253 | 3.2 | 12.9 | 0.00 | 0.00 | 0.00 | 38 | 1004.0 |
| 20260504205549 | 21 | 239 | 6.4 | 12.9 | 0.00 | 0.00 | 0.00 | 37 | 1004.1 |
| 20260504205047 | 20 | 272 | 9.7 | 16.1 | 0.00 | 0.00 | 0.00 | 39 | 1004.0 |
| 20260504204544 | 20 | 232 | 4.8 | 12.9 | 0.00 | 0.00 | 0.00 | 37 | 1004.1 |
| 20260504204043 | 20 | 238 | 8.0 | 11.3 | 0.00 | 0.00 | 0.00 | 38 | 1003.8 |
| 20260504203541 | 20 | 246 | 8.0 | 14.5 | 0.00 | 0.00 | 0.00 | 38 | 1003.9 |
| 20260504203038 | 21 | 257 | 8.0 | 11.3 | 0.00 | 0.00 | 0.00 | 37 | 1003.6 |
| 20260504202534 | 21 | 178 | 12.9 | 22.5 | 0.00 | 0.00 | 0.00 | 36 | 1003.9 |
| 20260504202031 | 20 | 268 | 8.0 | 16.1 | 0.00 | 0.00 | 0.00 | 38 | 1003.7 |
| 20260504201528 | 19 | 225 | 6.4 | 11.3 | 0.00 | 0.00 | 0.00 | 40 | 1003.8 |
| 20260504201026 | 20 | 245 | 11.3 | 16.1 | 0.00 | 0.00 | 0.00 | 39 | 1003.9 |
| 20260504200521 | 20 | 206 | 6.4 | 11.3 | 0.00 | 0.00 | 0.00 | 39 | 1004.0 |
| 20260504200019 | 20 | 273 | 14.5 | 20.9 | 0.00 | 0.00 | 0.00 | 38 | 1004.1 |
| 20260504195515 | 21 | 326 | 17.7 | 25.7 | 0.00 | 0.00 | 0.00 | 39 | 1003.9 |
| 20260504195011 | 21 | 266 | 8.0 | 12.9 | 0.00 | 0.00 | 0.00 | 37 | 1004.1 |
| 20260504194508 | 20 | 247 | 3.2 | 20.9 | 0.00 | 0.00 | 0.00 | 38 | 1004.0 |
| 20260504194003 | 20 | 203 | 14.5 | 22.5 | 0.00 | 0.00 | 0.00 | 40 | 1004.2 |
| 20260504193501 | 20 | 287 | 8.0 | 22.5 | 0.00 | 0.00 | 0.00 | 40 | 1003.9 |
| 20260504192959 | 20 | 262 | 3.2 | 17.7 | 0.00 | 0.00 | 0.00 | 40 | 1004.1 |
| 20260504192456 | 21 | 275 | 11.3 | 16.1 | 0.00 | 0.00 | 0.00 | 39 | 1004.3 |
| 20260504191955 | 20 | 267 | 6.4 | 9.7 | 0.00 | 0.00 | 0.00 | 38 | 1004.4 |
| 20260504191453 | 20 | 227 | 12.9 | 17.7 | 0.00 | 0.00 | 0.00 | 39 | 1004.2 |
| 20260504190947 | 20 | 289 | 8.0 | 24.1 | 0.00 | 0.00 | 0.00 | 40 | 1004.3 |
| 20260504190444 | 20 | 220 | 8.0 | 11.3 | 0.00 | 0.00 | 0.00 | 38 | 1004.2 |
| 20260504185941 | 20 | 281 | 9.7 | 11.3 | 0.00 | 0.00 | 0.00 | 37 | 1004.4 |
| 20260504185438 | 20 | 273 | 6.4 | 16.1 | 0.00 | 0.00 | 0.00 | 41 | 1004.4 |
| 20260504184934 | 18 | 244 | 4.8 | 12.9 | 0.00 | 0.00 | 0.00 | 41 | 1004.6 |
| 20260504184429 | 18 | 245 | 12.9 | 20.9 | 0.00 | 0.00 | 0.00 | 41 | 1004.6 |
| 20260504183926 | 18 | 198 | 9.7 | 12.9 | 0.00 | 0.00 | 0.00 | 41 | 1004.4 |
| 20260504183423 | 18 | 264 | 8.0 | 12.9 | 0.00 | 0.00 | 0.00 | 41 | 1004.5 |
| 20260504182921 | 18 | 211 | 4.8 | 12.9 | 0.00 | 0.00 | 0.00 | 41 | 1004.4 |
| 20260504182418 | 18 | 192 | 12.9 | 24.1 | 0.00 | 0.00 | 0.00 | 40 | 1004.4 |
| 20260504181914 | 19 | 191 | 4.8 | 24.1 | 0.00 | 0.00 | 0.00 | 41 | 1004.2 |
| 20260504181412 | 18 | 277 | 6.4 | 14.5 | 0.00 | 0.00 | 0.00 | 41 | 1004.3 |
| 20260504180911 | 18 | 200 | 11.3 | 22.5 | 0.00 | 0.00 | 0.00 | 39 | 1004.4 |
| 20260504180409 | 18 | 272 | 14.5 | 27.4 | 0.00 | 0.00 | 0.00 | 40 | 1004.4 |
| 20260504175907 | 18 | 229 | 11.3 | 27.4 | 0.00 | 0.00 | 0.00 | 38 | 1004.3 |
| 20260504175403 | 20 | 229 | 6.4 | 38.6 | 0.00 | 0.00 | 0.00 | 38 | 1004.2 |
| 20260504174901 | 20 | 254 | 8.0 | 24.1 | 0.00 | 0.00 | 0.00 | 38 | 1004.1 |
| 20260504174358 | 20 | 225 | 6.4 | 20.9 | 0.00 | 0.00 | 0.00 | 38 | 1004.2 |
| 20260504173855 | 19 | 103 | 11.3 | 17.7 | 0.00 | 0.00 | 0.00 | 38 | 1004.3 |
| 20260504173352 | 18 | 182 | 19.3 | 29.0 | 0.00 | 0.00 | 0.00 | 39 | 1004.5 |
| 20260504172849 | 18 | 140 | 9.7 | 16.1 | 0.00 | 0.00 | 0.00 | 41 | 1004.5 |
| 20260504172346 | 18 | 155 | 8.0 | 16.1 | 0.00 | 0.00 | 0.00 | 40 | 1004.4 |
| 20260504171841 | 18 | 231 | 6.4 | 17.7 | 0.00 | 0.00 | 0.00 | 41 | 1004.7 |
| 20260504171339 | 18 | 307 | 8.0 | 14.5 | 0.00 | 0.00 | 0.00 | 40 | 1004.6 |
| 20260504170836 | 18 | 259 | 8.0 | 20.9 | 0.00 | 0.00 | 0.00 | 40 | 1004.5 |
| 20260504170332 | 18 | 144 | 11.3 | 20.9 | 0.00 | 0.00 | 0.00 | 39 | 1004.5 |
| 20260504160251 | 18 | 178 | 16.1 | 22.5 | 0.00 | 0.00 | 0.00 | 41 | 1005.2 |
| 20260504150716 | 16 | 164 | 4.8 | 11.3 | 0.00 | 0.00 | 0.00 | 47 | 1005.4 |
| 20260504150213 | 16 | 254 | 4.8 | 11.3 | 0.00 | 0.00 | 0.00 | 47 | 1005.4 |
| 20260504141143 | 15 | 240 | 6.4 | 16.1 | 0.00 | 0.00 | 0.00 | 50 | 1006.3 |
| 20260504140639 | 15 | 165 | 4.8 | 16.1 | 0.00 | 0.00 | 0.00 | 52 | 1006.0 |
| 20260504140135 | 14 | 176 | 14.5 | 20.9 | 0.00 | 0.00 | 0.00 | 53 | 1006.3 |
| 20260504130603 | 11 | 201 | 6.4 | 8.0 | 0.00 | 0.00 | 0.00 | 63 | 1007.0 |
| 20260504110451 | 6 | 170 | 6.4 | 11.3 | 0.00 | 0.00 | 0.00 | 73 | 1007.6 |
| 20260504100407 | 5 | 171 | 3.2 | 8.0 | 0.00 | 0.00 | 0.00 | 72 | 1007.7 |
| 20260504081800 | 5 | 264 | 3.2 | 4.8 | 0.00 | 0.00 | 0.00 | 67 | 1007.3 |
| 20260504081257 | 5 | 266 | 3.2 | 4.8 | 0.00 | 0.00 | 0.00 | 67 | 1007.5 |
| 20260504080753 | 5 | 249 | 4.8 | 4.8 | 0.00 | 0.00 | 0.00 | 68 | 1007.4 |
| 20260504080250 | 5 | 248 | 4.8 | 4.8 | 0.00 | 0.00 | 0.00 | 67 | 1007.4 |
| 20260504070217 | 3 | 269 | 3.2 | 3.2 | 0.00 | 0.00 | 0.00 | 68 | 1007.3 |
| 20260504060138 | 4 | 243 | 3.2 | 4.8 | 0.00 | 0.00 | 0.00 | 65 | 1007.7 |
| 20260504050606 | 5 | 264 | 3.2 | 4.8 | 0.00 | 0.00 | 0.00 | 64 | 1007.4 |
| 20260504050103 | 4 | 271 | 3.2 | 3.2 | 0.00 | 0.00 | 0.00 | 66 | 1007.7 |
| 20260504045600 | 4 | 263 | 0.0 | 3.2 | 0.00 | 0.00 | 0.00 | 67 | 1007.5 |
| 20260504045055 | 4 | 255 | 1.6 | 3.2 | 0.00 | 0.00 | 0.00 | 67 | 1007.5 |
| 20260504044553 | 4 | 278 | 3.2 | 3.2 | 0.00 | 0.00 | 0.00 | 66 | 1007.6 |
| 20260504044049 | 5 | 252 | 1.6 | 3.2 | 0.00 | 0.00 | 0.00 | 65 | 1007.5 |
| 20260504043547 | 5 | 250 | 1.6 | 3.2 | 0.00 | 0.00 | 0.00 | 64 | 1007.6 |
| 20260504043044 | 5 | 250 | 3.2 | 3.2 | 0.00 | 0.00 | 0.00 | 64 | 1007.5 |
| 20260504042541 | 5 | 247 | 0.0 | 0.0 | 0.00 | 0.00 | 0.00 | 64 | 1007.4 |
| 20260504042038 | 5 | 250 | 3.2 | 3.2 | 0.00 | 0.00 | 0.00 | 64 | 1007.3 |
| 20260504041533 | 5 | 249 | 0.0 | 3.2 | 0.00 | 0.00 | 0.00 | 63 | 1007.4 |
| 20260504041030 | 5 | 247 | 3.2 | 3.2 | 0.00 | 0.00 | 0.00 | 63 | 1007.2 |
| 20260504040527 | 5 | 256 | 3.2 | 4.8 | 0.00 | 0.00 | 0.00 | 63 | 1007.3 |
| 20260504040024 | 5 | 247 | 3.2 | 3.2 | 0.00 | 0.03 | 0.03 | 63 | 1007.0 |
| 20260504035521 | 5 | 261 | 3.2 | 3.2 | 0.00 | 0.03 | 0.03 | 63 | 1007.2 |
| 20260504035017 | 5 | 252 | 3.2 | 4.8 | 0.00 | 0.03 | 0.03 | 64 | 1007.2 |
| 20260504034515 | 5 | 247 | 3.2 | 3.2 | 0.00 | 0.03 | 0.03 | 64 | 1007.2 |
| 20260504034012 | 5 | 247 | 1.6 | 1.6 | 0.00 | 0.03 | 0.03 | 64 | 1007.1 |
| 20260504033510 | 5 | 247 | 0.0 | 1.6 | 0.00 | 0.03 | 0.03 | 64 | 1006.9 |
| 20260504033007 | 5 | 248 | 0.0 | 1.6 | 0.00 | 0.03 | 0.03 | 64 | 1007.0 |
| 20260504032504 | 5 | 251 | 1.6 | 3.2 | 0.00 | 0.03 | 0.03 | 64 | 1007.1 |
| 20260504032000 | 5 | 244 | 0.0 | 1.6 | 0.00 | 0.03 | 0.03 | 64 | 1006.9 |
| 20260504031457 | 5 | 263 | 0.0 | 1.6 | 0.00 | 0.03 | 0.03 | 65 | 1007.0 |
| 20260504030954 | 5 | 252 | 1.6 | 3.2 | 0.00 | 0.03 | 0.03 | 65 | 1006.9 |
| 20260504030451 | 3 | 248 | 0.0 | 0.0 | 0.00 | 0.03 | 0.03 | 68 | 1006.8 |
| 20260504025946 | 3 | 243 | 0.0 | 0.0 | 0.00 | 0.03 | 0.03 | 69 | 1006.9 |
| 20260504025444 | 5 | 249 | 0.0 | 1.6 | 0.00 | 0.03 | 0.03 | 67 | 1006.8 |
| 20260504024941 | 5 | 247 | 3.2 | 3.2 | 0.00 | 0.03 | 0.03 | 65 | 1006.8 |
| 20260504024438 | 5 | 267 | 4.8 | 4.8 | 0.00 | 0.03 | 0.03 | 61 | 1006.7 |
| 20260504023935 | 5 | 320 | 8.0 | 9.7 | 0.00 | 0.03 | 0.03 | 64 | 1006.7 |
| 20260504023431 | 5 | 241 | 4.8 | 4.8 | 0.00 | 0.03 | 0.03 | 67 | 1006.7 |
| 20260504022927 | 5 | 262 | 3.2 | 4.8 | 0.00 | 0.03 | 0.03 | 64 | 1006.8 |
| 20260504022423 | 5 | 278 | 4.8 | 8.0 | 0.00 | 0.03 | 0.03 | 61 | 1006.6 |
| 20260504021920 | 6 | 257 | 3.2 | 4.8 | 0.00 | 0.03 | 0.03 | 61 | 1006.8 |
| 20260504021417 | 6 | 257 | 1.6 | 3.2 | 0.00 | 0.03 | 0.03 | 61 | 1006.8 |
| 20260504020915 | 5 | 264 | 0.0 | 1.6 | 0.00 | 0.03 | 0.03 | 63 | 1006.6 |
| 20260504020411 | 5 | 252 | 1.6 | 3.2 | 0.00 | 0.03 | 0.03 | 63 | 1006.8 |
| 20260504015908 | 5 | 240 | 1.6 | 3.2 | 0.00 | 0.03 | 0.03 | 63 | 1006.8 |
| 20260504015404 | 5 | 255 | 1.6 | 3.2 | 0.00 | 0.03 | 0.03 | 62 | 1006.7 |
| 20260504014900 | 5 | 301 | 3.2 | 4.8 | 0.00 | 0.03 | 0.03 | 62 | 1006.9 |
| 20260504014356 | 5 | 261 | 1.6 | 3.2 | 0.00 | 0.03 | 0.03 | 62 | 1006.9 |
| 20260504013853 | 6 | 244 | 0.0 | 0.0 | 0.00 | 0.03 | 0.03 | 61 | 1006.9 |
| 20260504013351 | 6 | 259 | 0.0 | 0.0 | 0.00 | 0.03 | 0.03 | 62 | 1006.9 |
| 20260504012848 | 6 | 248 | 0.0 | 0.0 | 0.00 | 0.03 | 0.03 | 62 | 1006.8 |
| 20260504012345 | 6 | 256 | 0.0 | 1.6 | 0.00 | 0.03 | 0.03 | 62 | 1006.9 |
| 20260504011843 | 6 | 239 | 0.0 | 1.6 | 0.00 | 0.03 | 0.03 | 63 | 1006.6 |
| 20260504011339 | 5 | 245 | 0.0 | 0.0 | 0.00 | 0.03 | 0.03 | 64 | 1006.6 |
| 20260504010835 | 5 | 246 | 0.0 | 0.0 | 0.00 | 0.03 | 0.03 | 64 | 1006.6 |
| 20260504010331 | 6 | 252 | 0.0 | 0.0 | 0.00 | 0.03 | 0.03 | 64 | 1006.5 |
| 20260504005828 | 6 | 263 | 0.0 | 0.0 | 0.00 | 0.03 | 0.03 | 63 | 1006.6 |
| 20260504005325 | 6 | 261 | 0.0 | 0.0 | 0.00 | 0.03 | 0.03 | 63 | 1006.5 |
| 20260504004822 | 6 | 250 | 0.0 | 0.0 | 0.00 | 0.03 | 0.03 | 63 | 1006.5 |
| 20260504004320 | 6 | 260 | 1.6 | 3.2 | 0.00 | 0.03 | 0.03 | 62 | 1006.3 |
| 20260504003816 | 6 | 272 | 3.2 | 4.8 | 0.00 | 0.03 | 0.03 | 62 | 1006.2 |
| 20260504003313 | 6 | 272 | 4.8 | 4.8 | 0.00 | 0.03 | 0.03 | 61 | 1006.0 |
| 20260504002809 | 6 | 284 | 3.2 | 8.0 | 0.00 | 0.03 | 0.03 | 61 | 1006.1 |
| 20260504002306 | 6 | 267 | 4.8 | 8.0 | 0.00 | 0.03 | 0.03 | 61 | 1005.9 |
| 20260504001804 | 6 | 247 | 6.4 | 8.0 | 0.00 | 0.03 | 0.03 | 60 | 1006.0 |
| 20260504001301 | 7 | 326 | 6.4 | 9.7 | 0.00 | 0.03 | 0.03 | 59 | 1005.8 |
| 20260504000758 | 7 | 278 | 3.2 | 8.0 | 0.00 | 0.03 | 0.03 | 59 | 1005.8 |
| 20260504000255 | 7 | 335 | 6.4 | 14.5 | 0.00 | 0.03 | 0.03 | 58 | 1005.6 |